When you browse on this site, cookies collect data to enhance your experience and personalize the content and advertising you see.
Visit our Privacy Policy to learn more. By continuing to use the site, you agree to this use of cookies and data.
  • In Österreich
  • Länderverzeichnis
  • Für 7 Tage
  • Wassertemperatur
  • Satellitenkarten
  • Wetterkarte
  • News
  • Widgets
  • user-avatar
    Anmelden

    Stündliche Wetter Babruisk

    Heute, 24 April, Mittwoch

    Zeit Temperatur Niederschläge Wind Luftdruck Luftfeuchtigkeit
    00:00 +11°C° 0 mm 1 m/S 758 mmHg 49%
    01:00 +11°C° 0 mm 1 m/S 758 mmHg 50%
    02:00 +9°C° 0 mm 0 m/S 758 mmHg 46%
    03:00 +10°C° 0 mm 1 m/S 758 mmHg 47%
    04:00 +9°C° 0 mm 1 m/S 758 mmHg 47%
    05:00 +9°C° 0 mm 1 m/S 758 mmHg 48%
    06:00 +11°C° 0 mm 1 m/S 758 mmHg 44%
    07:00 +14°C° 0 mm 1 m/S 758 mmHg 41%
    08:00 +16°C° 0 mm 2 m/S 758 mmHg 38%
    09:00 +17°C° 0 mm 2 m/S 758 mmHg 34%
    10:00 +19°C° 0 mm 3 m/S 758 mmHg 30%
    11:00 +20°C° 0 mm 3 m/S 758 mmHg 26%
    12:00 +21°C° 0 mm 3 m/S 758 mmHg 26%
    13:00 +21°C° 0 mm 3 m/S 757 mmHg 25%
    14:00 +22°C° 0 mm 4 m/S 757 mmHg 25%
    15:00 +21°C° 0 mm 3 m/S 757 mmHg 27%
    16:00 +21°C° 0 mm 3 m/S 757 mmHg 28%
    17:00 +21°C° 0 mm 3 m/S 756 mmHg 30%
    18:00 +19°C° 0 mm 3 m/S 756 mmHg 35%
    19:00 +17°C° 0 mm 2 m/S 756 mmHg 41%
    20:00 +15°C° 0 mm 2 m/S 756 mmHg 46%
    21:00 +14°C° 0 mm 2 m/S 756 mmHg 48%
    22:00 +13°C° 0 mm 2 m/S 757 mmHg 50%
    23:00 +12°C° 0 mm 2 m/S 757 mmHg 52%

    Morgen, 25 April, Donnerstag

    Zeit Temperatur Niederschläge Wind Luftdruck Luftfeuchtigkeit
    00:00 +12°C° 0 mm 2 m/S 757 mmHg 54%
    01:00 +10°C° 0 mm 2 m/S 757 mmHg 57%
    02:00 +11°C° 0 mm 1 m/S 757 mmHg 59%
    03:00 +9°C° 0 mm 2 m/S 757 mmHg 60%
    04:00 +9°C° 0 mm 2 m/S 757 mmHg 61%
    05:00 +9°C° 0 mm 2 m/S 757 mmHg 62%
    06:00 +12°C° 0 mm 2 m/S 757 mmHg 57%
    07:00 +14°C° 0 mm 2 m/S 757 mmHg 53%
    08:00 +16°C° 0 mm 3 m/S 756 mmHg 49%
    09:00 +17°C° 0 mm 4 m/S 756 mmHg 43%
    10:00 +19°C° 0 mm 4 m/S 756 mmHg 37%
    11:00 +20°C° 0 mm 5 m/S 756 mmHg 32%
    12:00 +21°C° 0 mm 5 m/S 756 mmHg 31%
    13:00 +21°C° 0 mm 5 m/S 755 mmHg 29%
    14:00 +22°C° 0 mm 5 m/S 755 mmHg 28%
    15:00 +22°C° 0 mm 5 m/S 754 mmHg 29%
    16:00 +21°C° 0 mm 4 m/S 754 mmHg 30%
    17:00 +21°C° 0 mm 4 m/S 754 mmHg 32%
    18:00 +19°C° 0 mm 3 m/S 754 mmHg 37%
    19:00 +17°C° 0 mm 3 m/S 753 mmHg 43%
    20:00 +15°C° 0 mm 2 m/S 753 mmHg 49%
    21:00 +14°C° 0 mm 2 m/S 753 mmHg 51%
    22:00 +13°C° 0 mm 2 m/S 754 mmHg 54%
    23:00 +13°C° 0 mm 2 m/S 754 mmHg 57%

    übermorgen, 26 April, Freitag

    Zeit Temperatur Niederschläge Wind Luftdruck Luftfeuchtigkeit
    00:00 +12°C° 0 mm 2 m/S 753 mmHg 59%
    01:00 +12°C° 0 mm 2 m/S 753 mmHg 62%
    02:00 +10°C° 0 mm 2 m/S 753 mmHg 64%
    03:00 +10°C° 0 mm 2 m/S 753 mmHg 67%
    04:00 +9°C° 0 mm 2 m/S 753 mmHg 69%
    05:00 +9°C° 0 mm 2 m/S 752 mmHg 72%
    06:00 +11°C° 0 mm 3 m/S 752 mmHg 67%
    07:00 +13°C° 0 mm 3 m/S 752 mmHg 62%
    08:00 +15°C° 0 mm 4 m/S 752 mmHg 57%
    09:00 +17°C° 0 mm 4 m/S 752 mmHg 52%
    10:00 +19°C° 0 mm 5 m/S 752 mmHg 46%
    11:00 +21°C° 0 mm 5 m/S 751 mmHg 41%
    12:00 +21°C° 0 mm 5 m/S 751 mmHg 39%
    13:00 +22°C° 0 mm 5 m/S 750 mmHg 37%
    14:00 +22°C° 0 mm 5 m/S 750 mmHg 35%
    15:00 +22°C° 0 mm 5 m/S 750 mmHg 36%
    16:00 +22°C° 0 mm 5 m/S 749 mmHg 37%
    17:00 +22°C° 0 mm 4 m/S 749 mmHg 38%
    18:00 +20°C° 0 mm 4 m/S 749 mmHg 43%
    19:00 +18°C° 0 mm 3 m/S 749 mmHg 49%
    20:00 +16°C° 0 mm 3 m/S 749 mmHg 54%
    21:00 +14°C° 0 mm 3 m/S 748 mmHg 55%
    22:00 +14°C° 0 mm 4 m/S 748 mmHg 56%
    23:00 +14°C° 0 mm 4 m/S 748 mmHg 57%

    27 April, Samstag

    Zeit Temperatur Niederschläge Wind Luftdruck Luftfeuchtigkeit
    00:00 +13°C° 0 mm 4 m/S 748 mmHg 59%
    01:00 +13°C° 0 mm 4 m/S 747 mmHg 61%
    02:00 +13°C° 0 mm 4 m/S 747 mmHg 63%
    03:00 +13°C° 0.1 mm 3 m/S 746 mmHg 66%
    04:00 +12°C° 0.1 mm 3 m/S 746 mmHg 69%
    05:00 +12°C° 0.1 mm 3 m/S 746 mmHg 72%
    06:00 +13°C° 0.2 mm 3 m/S 746 mmHg 72%
    07:00 +13°C° 0.2 mm 4 m/S 745 mmHg 72%
    08:00 +14°C° 0.2 mm 4 m/S 745 mmHg 72%
    09:00 +17°C° 0 mm 4 m/S 745 mmHg 67%
    10:00 +19°C° 0 mm 4 m/S 745 mmHg 62%
    11:00 +21°C° 0 mm 4 m/S 745 mmHg 58%
    12:00 +22°C° 0 mm 4 m/S 744 mmHg 55%
    13:00 +23°C° 0 mm 4 m/S 744 mmHg 52%
    14:00 +25°C° 0 mm 4 m/S 743 mmHg 50%
    15:00 +25°C° 0.4 mm 4 m/S 743 mmHg 53%
    16:00 +24°C° 0.4 mm 3 m/S 743 mmHg 56%
    17:00 +24°C° 0.4 mm 2 m/S 742 mmHg 58%
    18:00 +21°C° 0.3 mm 2 m/S 742 mmHg 66%
    19:00 +20°C° 0.3 mm 2 m/S 742 mmHg 73%
    20:00 +19°C° 0.3 mm 1 m/S 742 mmHg 81%
    21:00 +17°C° 0.7 mm 2 m/S 742 mmHg 84%
    22:00 +17°C° 0.7 mm 2 m/S 742 mmHg 87%
    23:00 +16°C° 0.7 mm 2 m/S 742 mmHg 90%

    28 April, Sonntag

    Zeit Temperatur Niederschläge Wind Luftdruck Luftfeuchtigkeit
    00:00 +16°C° 0.4 mm 2 m/S 742 mmHg 91%
    01:00 +16°C° 0.4 mm 3 m/S 742 mmHg 92%
    02:00 +16°C° 0.4 mm 3 m/S 742 mmHg 93%
    03:00 +16°C° 0 mm 3 m/S 742 mmHg 94%
    04:00 +15°C° 0 mm 2 m/S 742 mmHg 95%
    05:00 +15°C° 0 mm 2 m/S 742 mmHg 96%
    06:00 +16°C° 0 mm 2 m/S 742 mmHg 91%
    07:00 +17°C° 0 mm 2 m/S 743 mmHg 86%
    08:00 +18°C° 0 mm 2 m/S 743 mmHg 80%
    09:00 +20°C° 0.2 mm 2 m/S 743 mmHg 74%
    10:00 +21°C° 0.2 mm 2 m/S 743 mmHg 68%
    11:00 +23°C° 0.2 mm 2 m/S 743 mmHg 62%
    12:00 +23°C° 1.5 mm 2 m/S 743 mmHg 61%
    13:00 +22°C° 1.5 mm 3 m/S 744 mmHg 61%
    14:00 +22°C° 1.5 mm 3 m/S 744 mmHg 61%
    15:00 +21°C° 0.9 mm 4 m/S 744 mmHg 64%
    16:00 +21°C° 0.9 mm 5 m/S 744 mmHg 66%
    17:00 +20°C° 0.9 mm 5 m/S 744 mmHg 69%
    18:00 +17°C° 0 mm 5 m/S 745 mmHg 71%
    19:00 +16°C° 0 mm 6 m/S 746 mmHg 73%
    20:00 +14°C° 0 mm 6 m/S 746 mmHg 75%
    21:00 +13°C° 0 mm 6 m/S 747 mmHg 75%
    22:00 +11°C° 0 mm 6 m/S 747 mmHg 75%
    23:00 +9°C° 0 mm 6 m/S 748 mmHg 76%

    29 April, Montag

    Zeit Temperatur Niederschläge Wind Luftdruck Luftfeuchtigkeit
    00:00 +9°C° 0 mm 6 m/S 748 mmHg 74%
    01:00 +8°C° 0 mm 6 m/S 749 mmHg 72%
    02:00 +7°C° 0 mm 5 m/S 749 mmHg 71%
    03:00 +6°C° 0 mm 5 m/S 750 mmHg 69%
    04:00 +5°C° 0 mm 6 m/S 750 mmHg 67%
    05:00 +4°C° 0 mm 6 m/S 750 mmHg 65%
    06:00 +5°C° 0 mm 6 m/S 751 mmHg 62%
    07:00 +5°C° 0 mm 6 m/S 751 mmHg 60%
    08:00 +7°C° 0 mm 6 m/S 751 mmHg 57%
    09:00 +8°C° 0 mm 6 m/S 752 mmHg 53%
    10:00 +9°C° 0 mm 6 m/S 752 mmHg 48%
    11:00 +10°C° 0 mm 6 m/S 752 mmHg 44%
    12:00 +11°C° 0 mm 6 m/S 752 mmHg 42%
    13:00 +11°C° 0 mm 6 m/S 752 mmHg 41%
    14:00 +13°C° 0 mm 6 m/S 752 mmHg 39%
    15:00 +13°C° 0 mm 6 m/S 752 mmHg 41%
    16:00 +12°C° 0 mm 5 m/S 752 mmHg 42%
    17:00 +12°C° 0 mm 5 m/S 752 mmHg 44%
    18:00 +10°C° 0 mm 5 m/S 752 mmHg 49%
    19:00 +8°C° 0 mm 4 m/S 752 mmHg 53%
    20:00 +8°C° 0 mm 3 m/S 753 mmHg 58%
    21:00 +6°C° 0 mm 4 m/S 753 mmHg 59%
    22:00 +6°C° 0 mm 4 m/S 753 mmHg 60%
    23:00 +5°C° 0 mm 4 m/S 754 mmHg 61%
    Mehr zeigen